Vorticity
nan nan nan nan nan nan nan nan nan nan nan nan nan nan nan nan nan nan nan nan nan nan nan nan nan nan nan nan nan nan nan nan
nan 7 6 3 4 5 4 6 5 6 5 5 4 3 6 6 7 4 5 5 5 5 5 3 3 4 4 4 4 9 9 nan
nan 7 6 8 6 6 6 5 3 7 6 7 4 8 8 3 4 6 4 4 4 3 3 2 3 2 4 4 8 13 5 nan
nan 7 7 7 7 5 7 8 7 7 7 6 4 6 2 8 11 5 4 3 4 4 5 6 8 3 8 7 6 7 9 nan
nan 5 6 6 4 7 10 6 10 7 7 7 8 6 8 4 4 6 8 7 6 6 6 6 5 8 6 10 11 5 8 nan
nan 6 5 6 4 6 10 9 6 8 10 6 6 7 4 6 6 6 7 7 6 7 5 8 6 6 5 5 4 8 7 nan
nan 4 5 4 6 6 6 8 8 9 7 6 6 6 6 7 7 5 6 7 6 6 7 6 6 4 6 6 5 6 5 nan
nan 7 7 5 7 4 4 7 8 7 6 9 7 4 6 7 9 8 7 6 6 7 7 6 4 7 6 5 6 7 5 nan
nan 12 6 5 6 8 8 8 7 8 10 10 7 7 6 5 5 6 9 12 10 7 8 6 7 9 6 7 9 6 6 nan
nan 13 8 8 6 7 6 6 7 6 8 10 10 11 7 5 7 7 8 8 8 8 9 9 8 8 9 10 9 8 7 nan
nan 9 10 10 8 8 8 5 6 7 9 9 8 3 5 9 6 4 6 7 8 7 5 7 8 7 6 7 8 9 10 nan
nan 8 9 8 8 9 9 8 7 9 8 5 8 11 4 4 12 9 4 6 8 7 6 4 5 5 8 6 7 7 7 nan
nan 5 6 7 7 8 8 10 11 8 7 7 6 6 8 11 7 7 9 7 3 8 10 9 7 7 9 9 8 7 5 nan
nan 7 7 7 8 7 8 8 7 6 7 10 11 8 11 9 7 10 10 12 12 9 8 8 9 8 5 8 10 12 11 nan
nan 10 10 8 10 11 8 9 9 9 9 9 8 6 9 10 9 7 8 10 11 11 14 7 5 9 10 7 7 11 13 nan
nan 8 9 9 10 10 9 8 9 10 10 6 6 8 7 8 10 10 10 9 8 9 9 9 9 9 12 10 4 3 10 nan
nan 9 10 10 9 10 12 10 10 9 8 10 12 13 13 12 11 11 10 9 10 9 8 8 10 9 8 10 12 9 5 nan
nan 8 8 11 11 11 10 11 12 11 9 12 12 11 10 11 14 14 11 8 8 9 11 12 9 9 9 10 9 9 10 nan
nan 8 9 9 14 14 11 12 12 12 12 9 10 11 9 8 8 11 11 10 10 8 7 10 12 14 13 10 9 8 6 nan
nan nan nan nan nan nan nan nan nan nan nan nan nan nan nan nan nan nan nan nan nan nan nan nan nan nan nan nan nan nan nan nan
CAPE
59 27 10 0 0 0 1 2 1 6 1 2 0 0 0 0 0 0 0 0 0 0 0 0 0 0 0 0 0 0 12 7
213 113 9 12 0 0 0 0 0 0 1 0 0 0 0 0 0 0 0 0 0 0 0 0 0 0 0 0 0 0 0 0
315 198 137 41 34 0 0 0 0 0 0 0 0 1 0 0 0 0 0 0 0 0 0 0 0 0 0 0 0 0 0 0
167 210 161 29 16 21 14 25 21 8 0 0 0 1 0 0 0 0 0 0 0 0 0 0 0 0 0 0 0 0 0 0
171 236 197 111 112 17 16 5 11 9 0 2 2 0 0 0 0 0 0 0 0 0 0 0 0 0 0 0 0 0 0 0
206 201 180 151 183 13 6 0 0 0 2 0 0 0 1 0 2 8 1 0 1 0 0 0 0 0 0 0 0 0 0 0
444 294 237 146 88 0 0 1 0 0 0 0 0 1 10 12 18 10 18 18 7 1 0 0 0 0 0 0 0 0 0 0
428 401 153 85 40 112 49 44 9 0 0 11 16 4 27 33 55 42 35 35 34 32 21 13 3 2 0 0 0 0 0 0
396 463 356 320 135 232 104 170 70 69 97 76 39 75 92 99 96 157 83 95 80 56 45 34 25 25 7 9 2 0 0 0
252 257 301 87 85 337 406 136 126 121 155 202 183 153 148 158 151 171 120 194 135 90 74 81 66 52 83 34 27 10 9 2
15 16 85 209 118 150 255 188 106 52 89 85 139 148 117 238 173 220 202 197 158 164 148 105 108 86 41 68 37 42 31 14
13 35 43 126 220 229 114 158 76 152 109 79 193 95 92 78 97 262 310 238 116 324 260 223 108 67 28 28 36 25 22 51
18 25 41 79 87 83 84 86 194 154 130 119 156 120 93 86 99 149 153 157 192 250 228 156 90 0 10 11 33 46 12 32
22 29 43 50 51 52 75 80 78 98 81 198 207 149 295 200 287 213 173 168 184 227 308 265 275 261 155 127 71 77 53 37
3 4 2 2 1 1 8 17 24 20 30 45 59 93 67 129 108 61 147 158 145 211 212 217 204 220 91 64 90 53 62 32
0 0 0 0 0 0 0 0 0 2 7 6 8 10 0 2 5 59 121 90 123 143 193 203 195 137 238 80 42 52 62 53
0 0 0 0 0 0 0 0 1 2 2 0 0 1 17 41 46 60 78 79 103 133 140 158 152 179 203 96 66 36 27 48
0 0 0 0 0 0 2 5 8 12 19 29 32 37 28 35 64 78 77 54 47 81 114 115 123 117 101 82 54 48 23 19
0 0 0 7 3 1 5 21 28 15 22 28 21 20 21 10 0 3 14 23 46 17 19 9 71 95 120 97 84 42 103 65
0 0 1 4 1 0 1 0 0 11 11 13 15 21 14 23 40 27 45 35 33 53 32 38 7 8 10 38 76 57 116 8